Tracking 18840 objects as of 18-November-2017
HD Live streaming from Space Station
objects crossing your sky now

NAVSTAR 28 (USA 85)

Track NAVSTAR 28 (USA 85) now!
NAVSTAR 28 (USA 85) is classified as:


NORAD ID: 22231
Int'l Code: 1992-079A
Perigee: 21,155.9 km
Apogee: 21,347.1 km
Inclination: 55.3 °
Period: 761.5 minutes
Semi major axis: 27622 km
RCS: 3.981 m2 (large)
Launch date: November 22, 1992
Source: United States (US)
Launch site: AIR FORCE EASTERN TEST RANGE (AFETR)
PRN:
aabbcc
Your satellite tracking list
Your tracking list is empty




NASA's NSSDC Master Catalog

Two Line Element Set (TLE):
1 22231U 92079A   17320.93501994 +.00000000 +00000-0 +00000-0 0  9990
2 22231 055.2523 221.7194 0034617 300.6009 059.1194 01.89107291182883
Source of the keplerian elements: AFSPC